Regional Weather Roundup
Issued by NWS Sterling, VA

Home | Current Version | Previous Version | Graphics & Text | Print | Product List | Glossary On
Versions: 1 2 3 4 5 6 7 8 9 10 11 12 13 14 15 16 17 18 19 20 21 22 23 24 25 26 27
000
ASUS41 KLWX 280110
RWRLWX

REGIONAL WEATHER ROUNDUP
NATIONAL WEATHER SERVICE BALTIMORE MD/WASHINGTON DC
900 PM EDT WED APR 27 2016

Note: "FAIR" indicates few or no clouds below 12,000 feet
with no significant weather and/or obstructions to visibility.
 TC=TEMPERATURE CELSIUS

 * =Non NWS site. Station does not report precipitation (e.g. rain,
    snow, etc.), thunder, or fog.

DCZ001-MDZ009-015-VAZ040>042-051-053>054-280200-
WASHINGTON METRO

CITY           SKY/WX    TMP DP  RH WIND       PRES   REMARKS
WASHINGTON NAT LGT RAIN  54  50  86 E7        29.93R
DULLES         CLOUDY    55  50  83 E3        29.92R
ANDREWS AFB    CLOUDY    52  49  88 E6        29.92R
FT BELVOIR     MOCLDY    55  50  82 VRB2      29.93R
QUANTICO       CLOUDY    56  51  84 E8        29.94R
COLLEGE PARK*  CLOUDY    52  46  82 CALM      29.93R
LEESBURG*      CLOUDY    55  54  94 E3        29.93S
MANASSAS*      CLOUDY    55  52  88 CALM      29.92R
GAITHERSBURG*  CLOUDY    54  46  76 SE5       29.96S

$$

MDZ006>007-011-014-280200-
BALTIMORE METRO

CITY           SKY/WX    TMP DP  RH WIND       PRES   REMARKS
BWI AIRPORT    CLOUDY    54  47  77 SE3       29.92R
MD SCIENCE CTR   N/A     56  46  69 MISG      29.93R
MARTIN STATE   PTCLDY    55  50  82 CALM      29.94S
ANNAPOLIS      CLOUDY    54  48  80 CALM      29.93R
FORT MEADE*    CLOUDY    52  48  87 CALM      29.95R

$$

MDZ012-015-019>023-280200-
MARYLAND EASTERN SHORE

CITY           SKY/WX    TMP DP  RH WIND       PRES   REMARKS
OCEAN CITY     CLOUDY    50  45  83 NE8       29.93R
SALISBURY      CLOUDY    51  45  79 NE6       29.94R
CAMBRIDGE*       N/A     50  46  87 E3        29.92S

$$

MDZ017>025-280200-
SOUTHERN MARYLAND

CITY           SKY/WX    TMP DP  RH WIND       PRES   REMARKS
PATUXENT RIVER CLOUDY    54  50  86 E8        29.92R
ST INIGOES     CLOUDY    55  51  86 NE3       29.93R
LEONARDTOWN*   NOT AVBL

$$

MDZ003>005-280200-
NORTH CENTRAL MARYLAND

CITY           SKY/WX    TMP DP  RH WIND       PRES   REMARKS
FREDERICK*     CLOUDY    52  52 100 CALM      29.94S FOG
HAGERSTOWN APT CLOUDY    54  49  83 CALM      29.91S
WESTMINSTER*   CLOUDY    54  52  94 CALM      29.91S FOG

$$

MDZ501>502-280200-
WESTERN MARYLAND

CITY           SKY/WX    TMP DP  RH WIND       PRES   REMARKS
OAKLAND*       CLOUDY    54  50  87 CALM      29.92R
CUMBERLAND*    CLOUDY    57  50  77 S6        29.93S

$$

VAZ025>031-280200-
SHENANDOAH VALLEY

CITY           SKY/WX    TMP DP  RH WIND       PRES   REMARKS
WINCHESTER*    CLOUDY    54  52  94 CALM      29.92R FOG
FRONT ROYAL*   CLOUDY    54  52  94 CALM      29.91R
LURAY*         FAIR      55  55 100 NE5       29.91R
NEW MARKET*    FAIR      56  53  88 N6        29.88R
STAUNTON*      CLOUDY    63  61  93 NE6       29.91R
WAYNESBORO*    CLOUDY    59  58  96 MISG      29.90R

$$

WVZ021-048>050-054>055-280200-
EASTERN WEST VIRGINIA PANHANDLE

CITY           SKY/WX    TMP DP  RH WIND       PRES   REMARKS
MARTINSBURG    CLOUDY    52  50  93 CALM      29.91S FOG
PETERSBURG*    CLOUDY    60  56  89 CALM      29.91R

$$

VAZ036>039-050-280200-
CENTRAL FOOTHILLS

CITY           SKY/WX    TMP DP  RH WIND       PRES   REMARKS
CHARLOTTESVILL LGT RAIN  60  56  86 NE6       29.91R
CULPEPER*      CLOUDY    58  54  88 CALM      29.93R
ORANGE*        CLOUDY    57  55  94 NE5       29.93R
GORDONSVILLE*  CLOUDY    57  56  96 NE3       29.91R
WARRENTON*     CLOUDY    57  49  76 CALM      29.92R

$$

VAZ055>057-280200-
NORTH AND CENTRAL PIEDMONT

CITY           SKY/WX    TMP DP  RH WIND       PRES   REMARKS
FREDERICKSBRG* CLOUDY    56  55  98 E6        29.92R
STAFFORD*      CLOUDY    55  51  88 E3        29.96R

$$

NCZ024-NYZ072-PAZ021-071-VAZ022-071-280200-
OTHER REGIONAL OBSERVATIONS

CITY           SKY/WX    TMP DP  RH WIND       PRES   REMARKS
NEW YORK CITY  CLEAR     54  43  66 SW5       29.89S
PHILADELPHIA   CLOUDY    54  44  69 SW6       29.93R
PITTSBURGH     CLOUDY    61  44  53 W5        29.89R
ROANOKE        CLOUDY    70  65  84 E3        29.87R
RICHMOND       LGT RAIN  58  56  93 E7        29.92R
RALEIGH        CLOUDY    73  62  68 NE7       29.83R

$$

ANZ530>537-280200-
MARINE OBSERVATIONS

STATION/POSITION TIME  TEMP    WIND        PRES
                       AIR SEA DIR/SP/G
                 (UTC) (F)     (DEG/KT/KT) (MB)
THOMAS PT LIGHT  0100   54 58   80/  4/  5 1015.0R
BALT KEY BRIDGE  0000                      1012.9F
COVE POINT       0000                      1013.5R
LEWISETTA        0000      62              1012.2R
SOLOMONS ISLAND  0000      63                N/A
PINEY POINT      0006          100/  6/  8   N/A

$$





USA.gov is the U.S. government's official web portal to all federal, state and local government web resources and services.